QPF
0.06 0.07 0.08 0.08 0.16 0.14 0.14 0.18 0.17 0.23 0.25 0.18 0.14 0.04 0.03 0.06 0.13 0.15 0.06 0.01 0.00 0.00 0.03 0.02 0.00 0.00 0.00 0.00 0.00 0.00 0.00 0.00 0.00 0.00 0.00 0.00 0.00 0.00 0.00 0.00 0.03 0.02 0.00
0.00 0.00 0.02 0.03 0.04 0.03 0.02 0.03 0.06 0.16 0.22 0.37 0.39 0.33 0.32 0.44 0.40 0.37 0.28 0.14 0.09 0.01 0.06 0.05 0.03 0.01 0.00 0.00 0.00 0.00 0.00 0.00 0.00 0.00 0.00 0.00 0.00 0.00 0.00 0.00 0.00 0.00 0.00
0.00 0.00 0.00 0.00 0.00 0.00 0.00 0.00 0.02 0.06 0.09 0.12 0.20 0.30 0.34 0.31 0.32 0.31 0.29 0.28 0.22 0.12 0.04 0.05 0.05 0.03 0.00 0.00 0.00 0.00 0.00 0.00 0.00 0.00 0.00 0.00 0.00 0.00 0.00 0.00 0.01 0.00 0.00
0.00 0.00 0.00 0.00 0.00 0.00 0.00 0.00 0.00 0.00 0.00 0.01 0.02 0.07 0.08 0.13 0.14 0.14 0.17 0.21 0.24 0.25 0.21 0.12 0.08 0.12 0.11 0.05 0.02 0.00 0.00 0.00 0.00 0.00 0.00 0.00 0.00 0.00 0.00 0.00 0.00 0.00 0.00
0.00 0.00 0.00 0.00 0.00 0.00 0.00 0.00 0.00 0.00 0.00 0.00 0.00 0.00 0.00 0.01 0.01 0.01 0.03 0.06 0.14 0.27 0.23 0.21 0.19 0.17 0.12 0.08 0.09 0.06 0.03 0.01 0.00 0.00 0.00 0.00 0.00 0.00 0.00 0.00 0.00 0.00 0.01
0.00 0.00 0.00 0.00 0.00 0.00 0.00 0.00 0.00 0.00 0.00 0.00 0.00 0.00 0.00 0.00 0.00 0.00 0.00 0.01 0.06 0.13 0.13 0.09 0.10 0.15 0.13 0.06 0.05 0.06 0.07 0.03 0.02 0.02 0.02 0.00 0.00 0.00 0.00 0.00 0.00 0.00 0.00
0.00 0.00 0.00 0.00 0.00 0.00 0.00 0.00 0.00 0.00 0.00 0.00 0.00 0.00 0.00 0.00 0.00 0.00 0.00 0.01 0.03 0.02 0.02 0.03 0.03 0.02 0.01 0.04 0.09 0.05 0.04 0.05 0.05 0.04 0.03 0.01 0.02 0.01 0.00 0.00 0.00 0.00 0.02
0.00 0.00 0.00 0.00 0.00 0.00 0.00 0.00 0.00 0.00 0.00 0.00 0.00 0.00 0.00 0.00 0.00 0.00 0.00 0.00 0.01 0.00 0.00 0.00 0.00 0.00 0.00 0.00 0.02 0.10 0.08 0.07 0.06 0.07 0.07 0.02 0.02 0.02 0.01 0.00 0.00 0.00 0.00
0.00 0.00 0.00 0.00 0.00 0.00 0.00 0.00 0.00 0.00 0.00 0.00 0.00 0.00 0.00 0.00 0.00 0.00 0.00 0.00 0.00 0.00 0.00 0.00 0.01 0.00 0.00 0.00 0.01 0.04 0.04 0.03 0.06 0.12 0.12 0.04 0.01 0.01 0.01 0.01 0.00 0.00 0.00
0.00 0.00 0.00 0.00 0.00 0.00 0.00 0.00 0.00 0.00 0.00 0.00 0.00 0.00 0.00 0.00 0.00 0.00 0.00 0.00 0.00 0.01 0.01 0.00 0.00 0.00 0.01 0.00 0.00 0.03 0.04 0.06 0.04 0.11 0.14 0.12 0.07 0.03 0.02 0.00 0.00 0.00 0.00
0.00 0.00 0.00 0.00 0.00 0.00 0.00 0.00 0.00 0.00 0.00 0.00 0.00 0.00 0.00 0.00 0.00 0.00 0.00 0.00 0.00 0.00 0.00 0.01 0.00 0.00 0.00 0.00 0.01 0.01 0.02 0.03 0.04 0.04 0.08 0.09 0.08 0.05 0.03 0.00 0.00 0.00 0.00
0.00 0.00 0.00 0.00 0.00 0.00 0.00 0.00 0.00 0.00 0.00 0.00 0.00 0.00 0.00 0.00 0.00 0.00 0.00 0.00 0.00 0.00 0.00 0.00 0.00 0.01 0.01 0.03 0.04 0.04 0.03 0.01 0.01 0.03 0.03 0.05 0.08 0.08 0.08 0.07 0.03 0.00 0.00
0.00 0.00 0.00 0.00 0.00 0.00 0.00 0.00 0.00 0.00 0.00 0.00 0.00 0.00 0.00 0.00 0.00 0.00 0.00 0.00 0.00 0.00 0.00 0.00 0.00 0.00 0.00 0.04 0.09 0.09 0.05 0.05 0.04 0.05 0.05 0.04 0.04 0.06 0.07 0.07 0.10 0.07 0.02
0.00 0.00 0.00 0.00 0.00 0.00 0.00 0.00 0.00 0.00 0.00 0.00 0.00 0.00 0.00 0.00 0.00 0.00 0.00 0.00 0.00 0.00 0.00 0.00 0.00 0.00 0.00 0.00 0.03 0.06 0.08 0.10 0.11 0.11 0.10 0.12 0.13 0.09 0.09 0.10 0.09 0.06 0.07
0.00 0.00 0.00 0.00 0.00 0.00 0.00 0.00 0.00 0.00 0.00 0.00 0.00 0.00 0.00 0.00 0.00 0.00 0.00 0.00 0.00 0.00 0.00 0.00 0.00 0.00 0.00 0.00 0.00 0.01 0.05 0.07 0.10 0.10 0.08 0.08 0.10 0.12 0.12 0.12 0.10 0.07 0.04
0.00 0.00 0.00 0.00 0.00 0.00 0.00 0.00 0.00 0.00 0.00 0.00 0.00 0.00 0.00 0.00 0.00 0.00 0.00 0.00 0.00 0.00 0.00 0.00 0.00 0.00 0.00 0.00 0.00 0.00 0.00 0.01 0.02 0.04 0.05 0.06 0.05 0.05 0.07 0.10 0.12 0.10 0.08
0.00 0.00 0.00 0.00 0.00 0.00 0.00 0.00 0.00 0.00 0.00 0.00 0.00 0.00 0.00 0.00 0.00 0.00 0.00 0.00 0.00 0.00 0.00 0.00 0.00 0.00 0.00 0.00 0.00 0.00 0.00 0.00 0.01 0.01 0.01 0.02 0.06 0.06 0.07 0.07 0.07 0.09 0.07
0.00 0.00 0.00 0.00 0.00 0.00 0.00 0.00 0.00 0.00 0.00 0.00 0.00 0.00 0.00 0.00 0.00 0.00 0.00 0.00 0.00 0.00 0.00 0.00 0.00 0.00 0.00 0.00 0.00 0.00 0.00 0.00 0.00 0.00 0.01 0.01 0.03 0.05 0.07 0.09 0.08 0.05 0.03
0.00 0.00 0.00 0.00 0.00 0.00 0.00 0.00 0.00 0.00 0.00 0.00 0.00 0.00 0.00 0.00 0.00 0.00 0.00 0.00 0.00 0.00 0.00 0.00 0.00 0.00 0.00 0.00 0.00 0.00 0.00 0.00 0.00 0.00 0.00 0.00 0.00 0.01 0.03 0.06 0.09 0.08 0.05
0.00 0.00 0.00 0.00 0.00 0.00 0.00 0.00 0.00 0.00 0.00 0.00 0.00 0.00 0.00 0.00 0.00 0.00 0.00 0.00 0.00 0.00 0.00 0.00 0.00 0.00 0.00 0.00 0.00 0.00 0.00 0.00 0.00 0.00 0.00 0.00 0.00 0.01 0.01 0.03 0.05 0.08 0.09
0.00 0.00 0.00 0.00 0.00 0.00 0.00 0.00 0.00 0.00 0.00 0.00 0.00 0.00 0.00 0.00 0.00 0.00 0.00 0.00 0.00 0.00 0.00 0.00 0.00 0.00 0.00 0.00 0.00 0.00 0.00 0.00 0.00 0.00 0.00 0.00 0.00 0.00 0.00 0.01 0.01 0.01 0.02
0.00 0.00 0.00 0.00 0.00 0.00 0.00 0.00 0.00 0.00 0.00 0.00 0.00 0.00 0.00 0.00 0.00 0.00 0.00 0.00 0.00 0.00 0.00 0.00 0.00 0.00 0.00 0.00 0.00 0.00 0.00 0.00 0.00 0.00 0.00 0.00 0.00 0.00 0.00 0.00 0.00 0.00 0.00
0.00 0.00 0.00 0.00 0.00 0.00 0.00 0.00 0.00 0.00 0.00 0.00 0.00 0.00 0.00 0.00 0.00 0.00 0.00 0.00 0.00 0.00 0.00 0.00 0.00 0.00 0.00 0.00 0.00 0.00 0.00 0.00 0.00 0.00 0.00 0.00 0.00 0.00 0.00 0.00 0.00 0.00 0.00
0.00 0.00 0.00 0.00 0.00 0.00 0.00 0.00 0.00 0.00 0.00 0.00 0.00 0.00 0.00 0.00 0.00 0.00 0.00 0.00 0.00 0.00 0.00 0.00 0.00 0.00 0.00 0.00 0.00 0.00 0.00 0.00 0.00 0.00 0.00 0.00 0.00 0.00 0.00 0.00 0.00 0.00 0.00
0.00 0.00 0.00 0.00 0.00 0.00 0.00 0.00 0.00 0.00 0.00 0.00 0.00 0.00 0.00 0.00 0.00 0.00 0.00 0.00 0.00 0.00 0.00 0.00 0.00 0.00 0.00 0.00 0.00 0.00 0.00 0.00 0.00 0.00 0.00 0.00 0.00 0.00 0.00 0.00 0.00 0.00 0.00
0.00 0.00 0.00 0.00 0.00 0.00 0.00 0.00 0.00 0.00 0.00 0.00 0.00 0.00 0.00 0.00 0.00 0.00 0.00 0.00 0.00 0.00 0.00 0.00 0.00 0.00 0.00 0.00 0.00 0.00 0.00 0.00 0.00 0.00 0.00 0.00 0.00 0.00 0.00 0.00 0.00 0.00 0.00
MSLP
1014.95 1014.65 1014.63 1014.61 1014.65 1014.32 1014.39 1013.96 1013.68 1013.71 1013.57 1013.18 1012.90 1013.11 1013.20 1013.27 1013.24 1013.18 1013.11 1012.93 1012.86 1012.70 1012.88 1013.02 1013.27 1013.57 1013.81 1014.65 1015.19 1015.72 1016.03 1016.38 1016.83 1017.25 1017.57 1017.95 1018.48 1018.90 1019.30 1019.80 1020.27 1020.78 1021.07
1015.67 1015.29 1015.20 1014.80 1014.68 1014.69 1014.60 1014.02 1013.75 1013.77 1013.55 1013.47 1013.24 1013.17 1013.20 1012.91 1013.12 1012.98 1013.21 1012.43 1012.30 1012.23 1012.36 1012.50 1012.68 1012.88 1013.41 1013.77 1014.45 1014.86 1015.36 1015.70 1016.13 1016.56 1016.98 1017.37 1017.81 1018.30 1018.73 1019.17 1019.69 1020.20 1020.66
1016.41 1015.54 1015.27 1015.31 1015.18 1014.92 1014.28 1014.08 1013.82 1013.54 1013.49 1013.34 1013.17 1013.04 1012.95 1012.94 1012.97 1013.01 1012.45 1012.51 1011.54 1012.15 1012.11 1012.12 1011.89 1012.19 1012.61 1013.08 1013.73 1014.40 1014.72 1015.05 1015.50 1015.88 1016.37 1016.81 1017.19 1017.70 1018.17 1018.68 1019.10 1019.59 1020.07
1016.84 1016.24 1016.36 1016.41 1016.16 1015.64 1015.22 1014.99 1014.73 1014.16 1013.90 1013.69 1013.29 1012.85 1012.81 1012.69 1012.51 1012.02 1011.13 1011.99 1011.95 1013.31 1012.92 1012.62 1012.06 1011.79 1012.02 1012.42 1012.94 1013.64 1014.23 1014.53 1014.66 1015.24 1015.72 1016.05 1016.62 1016.94 1017.34 1017.90 1018.46 1019.01 1019.56
1017.56 1017.28 1017.25 1016.92 1016.58 1016.27 1016.11 1016.02 1015.69 1015.39 1014.73 1014.17 1013.63 1012.84 1012.43 1012.29 1012.23 1011.63 1010.93 1012.04 1012.89 1012.82 1012.55 1013.62 1013.68 1013.07 1012.37 1012.19 1012.51 1013.21 1013.59 1013.91 1014.19 1014.47 1014.91 1015.38 1015.80 1016.35 1016.65 1016.98 1017.61 1018.11 1018.67
1018.09 1017.80 1017.90 1017.54 1017.30 1016.85 1016.95 1016.43 1016.29 1015.96 1015.60 1015.01 1013.93 1012.79 1012.17 1011.83 1011.78 1011.67 1011.32 1011.34 1011.64 1011.39 1011.94 1012.89 1012.08 1011.40 1012.16 1012.56 1011.96 1012.37 1013.08 1013.20 1013.12 1013.56 1014.10 1014.54 1015.00 1015.61 1016.13 1016.40 1016.71 1017.24 1017.76
1018.72 1018.78 1018.39 1018.47 1017.77 1017.05 1017.61 1016.97 1016.91 1016.49 1015.83 1015.39 1014.26 1013.34 1012.06 1011.16 1011.22 1011.49 1011.53 1011.07 1011.05 1011.22 1011.65 1011.50 1011.07 1011.05 1009.95 1011.69 1011.79 1012.18 1012.29 1012.40 1012.87 1012.46 1013.05 1013.63 1014.13 1014.68 1015.25 1015.79 1016.09 1016.51 1017.02
1019.62 1019.46 1019.31 1018.99 1018.49 1018.42 1018.01 1017.85 1017.58 1017.17 1016.63 1016.26 1015.72 1014.77 1013.20 1011.77 1011.57 1011.34 1011.18 1011.04 1010.74 1010.59 1010.68 1010.66 1010.81 1011.02 1011.61 1011.65 1011.16 1011.51 1011.93 1011.35 1011.87 1012.07 1011.67 1012.53 1013.11 1013.71 1014.29 1014.82 1015.31 1015.73 1016.18
1020.57 1020.46 1020.06 1019.73 1019.25 1019.19 1018.61 1018.53 1018.14 1017.79 1017.38 1016.81 1016.52 1016.04 1014.80 1013.92 1013.10 1011.68 1011.45 1011.33 1011.08 1010.85 1010.66 1010.36 1010.10 1010.33 1010.44 1010.48 1010.64 1010.83 1010.62 1010.76 1010.66 1010.96 1011.10 1011.25 1012.02 1012.61 1013.29 1013.79 1014.29 1014.71 1015.24
1021.22 1021.21 1021.02 1020.49 1019.93 1019.60 1019.32 1019.13 1018.70 1018.33 1017.84 1017.29 1016.70 1016.13 1016.08 1015.78 1014.64 1013.18 1012.05 1011.63 1011.49 1011.12 1010.97 1010.92 1010.27 1009.66 1009.66 1009.76 1009.73 1010.05 1009.47 1009.76 1009.93 1010.09 1010.33 1010.32 1010.96 1011.54 1011.98 1012.60 1013.19 1013.65 1014.22
1021.68 1021.61 1021.46 1021.21 1020.69 1020.19 1019.84 1019.46 1019.16 1018.75 1018.21 1017.82 1017.52 1017.13 1016.60 1015.95 1015.30 1014.71 1012.71 1012.38 1011.96 1011.36 1011.29 1011.02 1010.78 1010.13 1009.65 1009.55 1009.57 1009.04 1008.56 1008.82 1008.91 1008.81 1008.68 1009.10 1009.94 1010.43 1010.76 1011.47 1011.93 1012.57 1013.05
1022.05 1021.96 1021.68 1021.46 1021.13 1020.60 1020.09 1019.64 1019.40 1018.97 1018.55 1018.24 1018.01 1017.68 1017.32 1016.80 1016.08 1015.59 1014.46 1013.60 1012.89 1011.41 1011.47 1011.08 1010.62 1010.58 1009.88 1009.34 1008.82 1008.37 1008.33 1008.60 1007.92 1007.65 1007.52 1007.91 1008.97 1009.29 1009.69 1010.16 1010.71 1011.26 1011.89
1022.46 1022.31 1021.99 1021.66 1021.25 1020.89 1020.34 1019.94 1019.64 1019.40 1018.90 1018.64 1018.34 1018.06 1017.62 1017.29 1017.16 1016.61 1015.47 1014.05 1013.36 1012.34 1011.55 1011.13 1010.69 1010.31 1009.85 1009.50 1008.84 1008.55 1008.63 1007.64 1007.42 1007.09 1007.18 1007.24 1008.01 1008.44 1008.61 1009.03 1009.48 1010.07 1010.52
1022.81 1022.55 1022.30 1021.91 1021.63 1021.27 1020.70 1020.16 1020.11 1019.74 1019.33 1018.96 1018.80 1018.60 1018.26 1017.94 1017.64 1017.32 1016.66 1015.71 1013.65 1012.67 1011.92 1011.21 1011.34 1010.23 1010.01 1009.63 1008.88 1008.12 1007.23 1006.67 1006.57 1006.58 1006.49 1006.57 1006.92 1007.41 1007.64 1007.92 1008.60 1008.93 1009.23
1022.90 1022.70 1022.51 1022.34 1022.13 1021.75 1021.20 1020.62 1020.74 1020.40 1019.87 1019.40 1019.57 1019.24 1018.86 1018.42 1017.94 1017.35 1016.86 1016.09 1015.33 1013.72 1012.35 1011.74 1011.36 1011.13 1011.19 1010.37 1009.41 1008.71 1007.65 1006.52 1005.13 1005.89 1005.77 1005.61 1006.02 1006.29 1006.74 1007.18 1007.69 1007.92 1008.27
1023.09 1022.70 1022.75 1022.78 1022.77 1022.30 1021.98 1021.34 1021.35 1021.02 1020.34 1019.95 1020.21 1019.79 1019.39 1018.71 1018.14 1017.71 1017.06 1016.51 1016.00 1015.28 1013.99 1013.22 1012.82 1011.91 1011.33 1010.37 1009.81 1009.28 1008.33 1006.96 1006.73 1005.99 1005.80 1005.73 1005.62 1005.63 1005.90 1006.17 1006.53 1006.87 1007.23
1023.48 1023.16 1023.39 1023.41 1023.24 1022.97 1022.58 1022.20 1021.66 1021.42 1020.83 1020.54 1020.52 1020.21 1019.83 1019.24 1018.46 1018.00 1017.51 1017.13 1016.58 1015.95 1014.94 1013.92 1013.11 1012.13 1011.83 1011.43 1010.84 1009.81 1008.95 1007.95 1007.40 1006.72 1006.30 1005.89 1006.12 1006.20 1006.24 1006.16 1006.01 1006.25 1006.39
1024.08 1024.04 1023.89 1024.06 1023.76 1023.57 1023.03 1023.02 1022.24 1021.85 1021.48 1021.20 1021.23 1021.08 1020.73 1019.92 1019.24 1018.59 1017.90 1017.54 1016.99 1016.26 1015.69 1014.54 1013.53 1013.00 1012.82 1012.48 1011.78 1010.61 1009.53 1008.54 1007.87 1006.79 1006.34 1006.26 1005.96 1005.84 1005.89 1005.89 1006.13 1006.12 1005.83
1024.76 1024.77 1024.57 1024.55 1024.47 1024.19 1023.80 1023.53 1022.84 1022.58 1022.28 1022.08 1022.13 1021.89 1021.85 1021.00 1019.99 1018.97 1018.61 1018.08 1017.61 1016.89 1016.59 1015.85 1014.98 1014.06 1013.35 1012.74 1011.73 1011.28 1010.26 1009.36 1008.26 1007.67 1007.28 1007.00 1006.70 1005.99 1006.13 1006.09 1006.08 1005.70 1005.49
1025.50 1025.62 1025.59 1025.47 1025.22 1024.80 1024.24 1023.73 1023.42 1023.48 1023.25 1023.50 1023.57 1023.42 1022.39 1021.60 1020.78 1020.12 1019.52 1019.12 1018.65 1018.00 1017.46 1016.78 1016.09 1015.20 1014.27 1013.34 1012.53 1011.65 1010.35 1009.80 1008.89 1008.35 1008.26 1007.88 1007.22 1006.16 1005.96 1005.64 1005.49 1005.35 1005.37
1026.35 1026.01 1026.31 1026.24 1025.83 1025.39 1024.73 1024.16 1024.18 1024.20 1024.37 1024.59 1024.57 1023.58 1023.17 1022.65 1022.01 1021.30 1020.76 1020.34 1019.67 1019.02 1018.27 1017.82 1017.31 1016.61 1015.68 1014.43 1013.59 1013.33 1012.46 1011.07 1009.38 1009.57 1009.16 1008.10 1006.91 1007.02 1006.49 1006.13 1005.62 1005.40 1005.25
1026.91 1026.84 1026.93 1026.78 1026.34 1025.80 1025.35 1024.68 1024.64 1024.97 1025.11 1025.28 1025.00 1024.68 1024.04 1023.35 1023.02 1022.57 1021.96 1021.46 1020.85 1020.25 1019.56 1018.98 1018.38 1017.81 1017.24 1016.72 1015.88 1014.85 1013.66 1012.06 1011.31 1010.84 1010.63 1009.05 1008.38 1007.92 1007.50 1007.10 1006.79 1006.37 1006.18
1027.60 1027.65 1027.57 1027.40 1026.86 1026.49 1026.07 1025.72 1025.52 1025.85 1026.11 1026.36 1026.06 1025.47 1024.54 1023.96 1023.82 1023.45 1023.04 1022.64 1022.10 1021.51 1020.88 1020.31 1019.88 1019.39 1018.65 1018.04 1017.25 1015.87 1015.01 1014.35 1013.54 1012.73 1011.82 1010.04 1009.53 1008.89 1008.10 1007.34 1007.02 1006.73 1006.24
1028.13 1028.20 1028.31 1028.08 1027.65 1027.11 1027.00 1026.91 1026.87 1027.01 1027.17 1026.99 1026.56 1026.01 1025.19 1024.69 1024.30 1024.30 1023.88 1023.50 1023.02 1022.66 1021.75 1021.38 1021.27 1020.84 1020.16 1019.18 1018.37 1017.44 1016.52 1015.39 1013.94 1013.24 1012.84 1011.80 1010.67 1010.17 1008.62 1007.87 1007.37 1007.00 1006.55
1028.59 1028.75 1028.97 1028.89 1028.54 1028.14 1027.70 1027.88 1028.04 1027.89 1027.82 1027.48 1027.05 1026.51 1025.83 1025.28 1024.76 1024.87 1024.49 1024.16 1023.83 1023.37 1022.89 1022.23 1022.01 1021.56 1020.95 1020.10 1019.15 1018.22 1016.95 1016.20 1015.46 1014.40 1013.96 1013.59 1012.36 1010.87 1009.53 1008.22 1007.72 1007.29 1006.70
1028.87 1029.21 1029.52 1029.56 1029.42 1029.07 1028.11 1028.11 1028.53 1028.45 1028.18 1027.84 1027.46 1026.99 1026.05 1025.99 1025.34 1025.15 1025.09 1024.80 1024.41 1024.36 1023.75 1023.01 1022.51 1022.07 1021.60 1020.87 1020.01 1019.36 1018.78 1017.74 1016.98 1015.56 1015.08 1014.61 1013.71 1013.08 1010.74 1008.83 1008.78 1008.19 1007.53
Thickness
5689 5689 5689 5688 5687 5691 5689 5693 5694 5692 5692 5691 5688 5689 5687 5686 5686 5688 5688 5691 5694 5697 5694 5694 5694 5693 5693 5685 5681 5677 5677 5675 5671 5668 5667 5665 5662 5659 5656 5652 5648 5643 5640
5673 5675 5674 5677 5678 5677 5679 5684 5685 5684 5684 5683 5685 5682 5680 5677 5676 5673 5673 5685 5687 5691 5691 5689 5689 5689 5686 5685 5679 5678 5675 5673 5671 5667 5664 5663 5661 5658 5656 5653 5649 5645 5640
5655 5662 5664 5663 5663 5665 5669 5671 5674 5676 5677 5677 5678 5677 5675 5674 5672 5669 5668 5678 5673 5681 5683 5683 5688 5687 5683 5681 5677 5672 5672 5671 5668 5665 5662 5660 5659 5656 5654 5652 5649 5646 5642
5640 5643 5642 5641 5644 5648 5650 5652 5654 5659 5660 5661 5666 5671 5668 5666 5666 5673 5679 5663 5660 5669 5667 5674 5679 5680 5677 5675 5674 5671 5667 5667 5669 5664 5659 5658 5655 5654 5653 5651 5648 5644 5641
5626 5626 5625 5626 5627 5629 5630 5632 5634 5636 5641 5646 5651 5659 5663 5662 5658 5665 5673 5661 5653 5657 5659 5652 5652 5656 5661 5664 5664 5661 5662 5660 5662 5662 5660 5656 5654 5650 5650 5649 5647 5645 5642
5611 5611 5608 5609 5608 5610 5609 5614 5615 5616 5619 5627 5636 5645 5653 5657 5652 5652 5655 5661 5653 5660 5656 5648 5652 5638 5649 5649 5662 5660 5654 5655 5659 5659 5657 5656 5652 5649 5646 5646 5646 5644 5642
5592 5588 5589 5587 5591 5596 5589 5592 5593 5597 5600 5606 5618 5626 5635 5646 5647 5643 5641 5649 5652 5648 5642 5645 5655 5659 5663 5645 5653 5653 5651 5652 5649 5655 5653 5652 5652 5647 5644 5641 5642 5642 5640
5568 5565 5565 5566 5568 5568 5571 5570 5571 5573 5578 5581 5586 5595 5614 5626 5626 5630 5633 5634 5639 5642 5638 5639 5639 5644 5643 5647 5653 5651 5644 5651 5645 5645 5652 5649 5650 5647 5643 5641 5640 5640 5640
5541 5539 5540 5540 5543 5543 5547 5547 5550 5552 5554 5559 5561 5566 5584 5590 5601 5612 5613 5616 5619 5624 5624 5627 5633 5635 5638 5647 5649 5645 5646 5648 5646 5643 5645 5648 5647 5645 5643 5640 5640 5641 5639
5524 5517 5517 5518 5521 5522 5523 5524 5527 5529 5534 5537 5542 5545 5549 5556 5567 5586 5596 5597 5601 5606 5609 5606 5618 5624 5631 5638 5643 5639 5648 5647 5647 5640 5641 5645 5644 5643 5643 5641 5639 5638 5637
5504 5500 5499 5497 5498 5500 5501 5503 5505 5508 5513 5517 5519 5522 5526 5534 5544 5551 5580 5580 5585 5588 5591 5596 5599 5609 5617 5624 5629 5637 5646 5643 5643 5644 5644 5644 5641 5640 5644 5642 5640 5638 5638
5487 5483 5482 5482 5481 5482 5484 5485 5485 5489 5494 5498 5501 5504 5507 5514 5522 5529 5543 5556 5565 5578 5572 5580 5588 5590 5600 5612 5621 5628 5632 5632 5640 5644 5646 5644 5638 5641 5643 5643 5642 5640 5639
5473 5470 5468 5466 5466 5466 5467 5466 5468 5471 5476 5478 5483 5486 5492 5497 5500 5506 5521 5540 5546 5558 5561 5563 5570 5578 5584 5592 5603 5613 5617 5629 5634 5637 5638 5640 5636 5637 5641 5642 5641 5640 5642
5458 5457 5455 5453 5451 5449 5450 5451 5449 5454 5459 5462 5464 5469 5474 5480 5485 5488 5497 5509 5531 5542 5548 5552 5550 5559 5566 5574 5589 5602 5615 5623 5625 5627 5631 5634 5635 5635 5639 5641 5637 5640 5642
5445 5442 5439 5436 5434 5434 5434 5435 5432 5434 5440 5446 5447 5452 5457 5465 5471 5479 5485 5493 5502 5520 5528 5535 5538 5539 5537 5552 5569 5581 5596 5611 5611 5613 5623 5630 5630 5633 5635 5635 5635 5637 5638
5432 5430 5425 5421 5417 5418 5418 5419 5417 5419 5425 5429 5428 5434 5442 5452 5461 5467 5472 5479 5485 5493 5505 5508 5510 5518 5524 5536 5551 5560 5572 5591 5594 5603 5611 5617 5623 5627 5630 5632 5634 5635 5635
5418 5416 5409 5406 5404 5403 5402 5403 5405 5407 5411 5415 5417 5423 5430 5439 5449 5456 5462 5465 5470 5473 5482 5488 5495 5505 5510 5516 5526 5542 5553 5567 5577 5587 5596 5605 5608 5611 5615 5620 5625 5627 5629
5402 5398 5395 5391 5390 5388 5390 5389 5392 5396 5399 5403 5405 5409 5415 5427 5435 5444 5449 5452 5456 5461 5464 5473 5479 5486 5492 5497 5507 5522 5536 5548 5559 5572 5583 5587 5596 5600 5604 5608 5609 5613 5620
5385 5381 5380 5377 5375 5375 5376 5378 5382 5383 5385 5389 5392 5397 5400 5410 5421 5431 5435 5439 5442 5447 5448 5454 5458 5466 5477 5486 5497 5505 5517 5528 5541 5551 5559 5568 5575 5586 5588 5593 5595 5601 5607
5368 5364 5363 5361 5361 5363 5366 5369 5372 5371 5372 5371 5374 5378 5390 5397 5406 5413 5419 5421 5425 5429 5433 5438 5444 5449 5460 5471 5482 5492 5504 5511 5521 5533 5538 5547 5556 5569 5574 5581 5585 5589 5591
5352 5351 5348 5347 5350 5352 5356 5359 5359 5360 5359 5358 5359 5370 5376 5381 5387 5394 5398 5402 5407 5411 5418 5422 5426 5433 5442 5453 5462 5467 5477 5490 5506 5509 5516 5529 5545 5547 5554 5560 5566 5572 5576
5339 5337 5336 5337 5341 5344 5347 5351 5351 5348 5349 5348 5352 5355 5362 5369 5373 5376 5380 5383 5388 5392 5397 5402 5408 5414 5420 5426 5434 5443 5455 5471 5480 5488 5492 5503 5516 5523 5531 5537 5541 5547 5552
5328 5326 5327 5329 5333 5336 5338 5341 5341 5339 5337 5335 5338 5343 5353 5357 5358 5361 5364 5367 5371 5374 5377 5381 5385 5389 5398 5403 5411 5423 5429 5437 5447 5456 5467 5480 5489 5499 5508 5517 5522 5527 5534
5320 5319 5319 5321 5324 5328 5329 5329 5329 5328 5326 5327 5330 5334 5341 5344 5347 5347 5350 5353 5356 5358 5364 5365 5365 5367 5373 5381 5389 5397 5404 5414 5429 5435 5442 5451 5466 5472 5485 5493 5500 5507 5515
5316 5314 5312 5313 5315 5317 5320 5319 5319 5319 5318 5321 5324 5328 5332 5334 5337 5337 5340 5342 5344 5348 5350 5353 5353 5356 5360 5365 5371 5379 5389 5396 5400 5409 5417 5423 5436 5452 5462 5473 5478 5486 5496
5312 5309 5306 5306 5309 5309 5314 5313 5312 5313 5313 5315 5317 5321 5325 5324 5328 5328 5328 5330 5333 5333 5337 5342 5345 5346 5348 5354 5358 5363 5366 5373 5377 5386 5390 5397 5403 5414 5436 5447 5451 5460 5467